Retour au catalogue

NOAA 17 DEB

ActifPO
NORAD 48611·DEBRIS·🇺🇸 United States

Lancé Jun 24, 2002 depuis Vandenberg Space Force Base

Loading…

Prochains Passages (prochaines 24 heures)

TLE

FraisSource: Space-Track

Époque: Sep 13, 2026, 05:35 UTC

1 48611U 02032AC  26256.23299689  .00005411  00000-0  11257-2 0  9995
2 48611  98.7413 253.5931 0004429 345.4633  14.6437 14.60478688284369

Suivez NOAA 17 DEB en temps réel avec AllMySat

Download on the App Store